Change the Weather History Date:

Saturday, September 13, 2014

  Actual Average Record
Temperature  
Mean Temperature 60 °F -  
Max Temperature 70 °F 74 °F 91 °F (1957)
Min Temperature 51 °F 51 °F 38 °F (1967)
Degree Days  
Heating Degree Days 6    
Growing Degree Days 10 (Base 50)    
Moisture  
Dew Point 53 °F    
Average Humidity 74    
Maximum Humidity 90    
Minimum Humidity 50    
Precipitation  
Precipitation 0.15 in - - ()
Sea Level Pressure  
Sea Level Pressure 30.17 in    
Wind  
Wind Speed 6 mph (NE)    
Max Wind Speed 14 mph    
Max Gust Speed 21 mph    
Visibility 10 miles    
Events Rain    
Averages and records for this station are not official NWS values.
T = Trace of Precipitation, MM = Missing Value Source: NWS Daily Summary

Daily Weather History Graph

Daily Weather History Graph

Search for Another Location

Airport or City:

Trip Planner

Search our weather history database for the weather conditions in past years. The results will help you decide how hot, cold, wet, or windy it might be!

Date:

Astronomy

Sep. 13, 2014 Rise Set
Actual Time 6:20 AM EDT 6:55 PM EDT
Civil Twilight 5:52 AM EDT 7:23 PM EDT
Nautical Twilight 5:19 AM EDT 7:57 PM EDT
Astronomical Twilight 4:45 AM EDT 8:31 PM EDT
Moon 9:53 PM EDT (9/13) 11:29 AM EDT (9/13)
Length of Visible Light 13h 31m
Length of Day
12h 35m
Waning Gibbous, 74% of the Moon is Illuminated
Sep 13
Waning Gibbous
Sep 15
Last Quarter
Sep 24
New
Oct 1
First Quarter
Oct 8
Full

Hourly Weather History & Observations

Time (EDT) Temp. Dew Point Humidity Pressure Visibility Wind Dir Wind Speed Gust Speed Precip Events Conditions
12:52 AM 51.1 °F 46.0 °F 83% 30.23 in 10.0 mi Calm Calm - N/A   Clear
1:52 AM 51.1 °F 46.9 °F 86% 30.23 in 10.0 mi Calm Calm - N/A   Clear
2:52 AM 51.1 °F 46.9 °F 86% 30.22 in 10.0 mi North 4.6 mph - N/A   Clear
3:52 AM 57.9 °F 50.0 °F 75% 30.22 in 10.0 mi NE 11.5 mph - N/A   Partly Cloudy
4:52 AM 57.9 °F 51.1 °F 78% 30.22 in 10.0 mi NE 8.1 mph - N/A   Partly Cloudy
5:52 AM 59.0 °F 48.9 °F 69% 30.24 in 10.0 mi ENE 8.1 mph - N/A   Clear
6:52 AM 59.0 °F 50.0 °F 72% 30.26 in 10.0 mi NE 5.8 mph - N/A   Clear
7:52 AM 62.1 °F 52.0 °F 70% 30.25 in 10.0 mi NE 9.2 mph - N/A   Partly Cloudy
8:52 AM 64.0 °F 53.1 °F 67% 30.24 in 10.0 mi NE 11.5 mph - N/A   Partly Cloudy
9:52 AM 64.9 °F 51.1 °F 61% 30.24 in 10.0 mi East 13.8 mph - N/A   Mostly Cloudy
10:52 AM 64.9 °F 50.0 °F 58% 30.23 in 10.0 mi ESE 10.4 mph 19.6 mph N/A   Overcast
11:52 AM 68.0 °F 48.9 °F 50% 30.21 in 10.0 mi East 13.8 mph 20.7 mph N/A   Mostly Cloudy
12:52 PM 68.0 °F 50.0 °F 52% 30.21 in 10.0 mi East 9.2 mph 17.3 mph N/A   Partly Cloudy
1:52 PM 68.0 °F 51.1 °F 55% 30.19 in 10.0 mi ESE 9.2 mph - N/A   Partly Cloudy
2:52 PM 66.9 °F 51.1 °F 57% 30.15 in 10.0 mi ENE 10.4 mph - N/A   Clear
3:52 PM 66.0 °F 51.1 °F 59% 30.13 in 10.0 mi East 10.4 mph - N/A   Clear
4:52 PM 64.9 °F 52.0 °F 63% 30.14 in 10.0 mi ENE 8.1 mph - N/A   Overcast
5:32 PM 64.9 °F 53.1 °F 65% 30.16 in 10.0 mi NE 6.9 mph - N/A   Overcast
5:52 PM 64.0 °F 53.1 °F 67% 30.17 in 10.0 mi North 5.8 mph - N/A   Overcast
6:20 PM 63.0 °F 54.0 °F 72% 30.17 in 10.0 mi North 8.1 mph - N/A   Overcast
6:52 PM 61.0 °F 55.0 °F 81% 30.14 in 6.0 mi NE 8.1 mph - 0.02 in Rain Light Rain
7:52 PM 60.1 °F 57.0 °F 90% 30.12 in 6.0 mi ENE 6.9 mph - 0.09 in Rain Light Rain
8:24 PM 61.0 °F 57.9 °F 90% 30.11 in 10.0 mi ENE 4.6 mph - 0.03 in Rain Light Rain
8:52 PM 61.0 °F 57.9 °F 90% 30.10 in 10.0 mi ENE 4.6 mph - 0.03 in Rain Light Rain
9:52 PM 61.0 °F 57.9 °F 90% 30.10 in 10.0 mi NE 3.5 mph - 0.01 in   Overcast
10:29 PM 63.0 °F 57.9 °F 84% 30.10 in 10.0 mi NNW 3.5 mph - N/A   Overcast
10:43 PM 61.0 °F 57.9 °F 90% 30.10 in 10.0 mi NW 3.5 mph - N/A   Overcast
10:52 PM 61.0 °F 57.9 °F 90% 30.10 in 10.0 mi NW 4.6 mph - N/A   Overcast
11:27 PM 60.1 °F 57.0 °F 90% 30.11 in 10.0 mi NW 6.9 mph - N/A   Overcast
11:52 PM 60.1 °F 57.0 °F 90% 30.11 in 10.0 mi NW 9.2 mph - N/A   Overcast